timestamp,surface_pressure_avg,surface_temp_avg,battery_voltage,lat,long
2023-09-03 00:09:00+00:00,329.0296,18.9,12.33,47.84626,-54.09684
2023-09-03 00:19:00+00:00,334.1446,18.9,12.25,47.84626,-54.09684
2023-09-03 00:29:00+00:00,342.3363,18.9,12.25,47.84626,-54.09684
2023-09-03 00:39:00+00:00,351.0146,18.95,12.25,47.84626,-54.09684
2023-09-03 00:49:00+00:00,359.2896,19.0,12.25,47.84626,-54.09684
2023-09-03 00:59:00+00:00,361.4214,19.03,12.25,47.84626,-54.09684
2023-09-03 01:09:00+00:00,368.1063,19.06,12.25,47.84626,-54.09684
2023-09-03 01:19:00+00:00,373.4178,19.0,12.25,47.84626,-54.09684
2023-09-03 01:29:00+00:00,372.7262,19.05,12.25,47.84626,-54.09684
2023-09-03 01:39:00+00:00,369.6961,19.08,12.25,47.84626,-54.09684
2023-09-03 01:49:00+00:00,372.3246,19.0,12.25,47.84626,-54.09684
2023-09-03 01:59:00+00:00,374.9528,19.0,12.25,47.84626,-54.09684
2023-09-03 02:09:00+00:00,369.7013,19.03,12.25,47.84626,-54.09684
2023-09-03 02:19:00+00:00,365.7729,19.0,12.25,47.84626,-54.09684
2023-09-03 02:29:00+00:00,363.7947,19.0,12.25,47.84626,-54.09684
2023-09-03 02:39:00+00:00,358.6746,19.0,12.25,47.84626,-54.09684
2023-09-03 02:49:00+00:00,352.918,18.9,12.25,47.84626,-54.09684
2023-09-03 02:59:00+00:00,347.5363,18.89,12.25,47.84626,-54.09684
2023-09-03 03:09:00+00:00,343.603,18.9,12.25,47.84626,-54.09684
2023-09-03 03:19:00+00:00,339.4579,18.87,12.25,47.84626,-54.09684
2023-09-03 03:29:00+00:00,332.3813,18.81,12.25,47.84626,-54.09684
2023-09-03 03:39:00+00:00,321.9113,18.8,12.25,47.84626,-54.09684
2023-09-03 03:49:00+00:00,317.1564,18.8,12.25,47.84626,-54.09684
2023-09-03 03:59:00+00:00,316.0162,18.8,12.25,47.84626,-54.09684
2023-09-03 04:09:00+00:00,305.7762,18.8,12.25,47.84626,-54.09684
2023-09-03 04:19:00+00:00,291.0547,18.8,12.25,47.84626,-54.09684
2023-09-03 04:29:00+00:00,282.4897,18.8,12.25,47.84626,-54.09684
2023-09-03 04:39:00+00:00,276.4781,18.8,12.25,47.84626,-54.09684
2023-09-03 04:49:00+00:00,267.9415,18.8,12.25,47.84626,-54.09684
2023-09-03 04:59:00+00:00,257.3197,18.8,12.25,47.84626,-54.09684
2023-09-03 05:09:00+00:00,247.9398,18.8,12.25,47.84626,-54.09684
2023-09-03 05:19:00+00:00,237.8481,18.8,12.25,47.84626,-54.09684
2023-09-03 05:29:00+00:00,224.2864,18.8,12.25,47.84626,-54.09684
2023-09-03 05:39:00+00:00,214.7314,18.8,12.25,47.84626,-54.09684
2023-09-03 05:49:00+00:00,207.9781,18.8,12.25,47.84626,-54.09684
2023-09-03 05:59:00+00:00,195.5998,18.8,12.25,47.84626,-54.09684
2023-09-03 06:09:00+00:00,181.8815,18.7,12.25,47.84626,-54.09684
2023-09-03 06:19:00+00:00,177.7615,18.5,12.25,47.84626,-54.09684
2023-09-03 06:29:00+00:00,178.4848,18.45,12.25,47.84626,-54.09684
2023-09-03 06:39:00+00:00,170.4565,18.43,12.25,47.84626,-54.09684
2023-09-03 06:49:00+00:00,158.9981,18.57,12.25,47.84626,-54.09684
2023-09-03 06:59:00+00:00,157.8632,18.63,12.25,47.84626,-54.09684
2023-09-03 07:09:00+00:00,157.9498,18.68,12.25,47.84626,-54.09684
2023-09-03 07:19:00+00:00,154.0248,18.7,12.25,47.84626,-54.09684
2023-09-03 07:29:00+00:00,157.4398,18.67,12.25,47.84626,-54.09684
2023-09-03 07:39:00+00:00,160.5798,18.6,12.25,47.84626,-54.09684
2023-09-03 07:49:00+00:00,158.0865,18.59,12.25,47.84626,-54.09684
2023-09-03 07:59:00+00:00,161.1965,18.58,12.25,47.84626,-54.09684
2023-09-03 08:09:00+00:00,172.7181,18.59,12.25,47.84626,-54.09684
2023-09-03 08:19:00+00:00,178.5648,18.6,12.17,47.84626,-54.09684
2023-09-03 08:29:00+00:00,177.5048,18.6,12.17,47.84626,-54.09684
2023-09-03 08:39:00+00:00,182.5464,18.65,12.17,47.84626,-54.09684
2023-09-03 08:49:00+00:00,193.2281,18.7,12.17,47.84626,-54.09684
2023-09-03 08:59:00+00:00,197.6914,18.7,12.17,47.84626,-54.09684
2023-09-03 09:09:00+00:00,196.3014,18.69,12.17,47.84626,-54.09684
2023-09-03 09:19:00+00:00,199.8381,18.69,12.17,47.84626,-54.09684
2023-09-03 09:29:00+00:00,206.7065,18.7,12.17,47.84626,-54.09684
2023-09-03 09:39:00+00:00,211.5281,18.7,12.17,47.84626,-54.09684
2023-09-03 09:49:00+00:00,215.4564,18.64,12.17,47.84626,-54.09684
2023-09-03 09:59:00+00:00,222.9548,18.6,12.17,47.84626,-54.09684
2023-09-03 10:09:00+00:00,228.0531,18.62,12.17,47.84626,-54.09684
2023-09-03 10:19:00+00:00,227.6147,18.65,12.17,47.84626,-54.09684
2023-09-03 10:29:00+00:00,228.6931,18.7,12.17,47.84626,-54.09684
2023-09-03 10:39:00+00:00,235.5348,18.7,12.17,47.84626,-54.09684
2023-09-03 10:49:00+00:00,240.4331,18.69,12.17,47.84626,-54.09684
2023-09-03 10:59:00+00:00,240.8514,18.7,12.17,47.84626,-54.09684
2023-09-03 11:09:00+00:00,244.3098,18.8,12.17,47.84626,-54.09684
2023-09-03 11:19:00+00:00,254.6747,18.8,12.17,47.84626,-54.09684
2023-09-03 11:29:00+00:00,264.0914,18.8,12.17,47.84626,-54.09684
2023-09-03 11:39:00+00:00,270.0964,18.8,12.17,47.84626,-54.09684
2023-09-03 11:49:00+00:00,277.5181,18.8,12.17,47.84626,-54.09684
2023-09-03 11:59:00+00:00,292.1881,18.79,12.17,47.84626,-54.09684
2023-09-03 12:09:00+00:00,301.9564,18.8,12.17,47.84626,-54.09684
2023-09-03 12:19:00+00:00,306.9764,18.87,12.17,47.84626,-54.09684
2023-09-03 12:29:00+00:00,316.9013,18.9,12.17,47.84626,-54.09684
2023-09-03 12:39:00+00:00,330.5897,18.9,12.17,47.84626,-54.09684
2023-09-03 12:49:00+00:00,336.4480000000001,18.9,12.17,47.84626,-54.09684
2023-09-03 12:59:00+00:00,340.6547,18.9,12.17,47.84626,-54.09684
2023-09-03 13:09:00+00:00,345.468,18.9,12.17,47.84626,-54.09684
2023-09-03 13:19:00+00:00,352.9246,18.9,12.17,47.84626,-54.09684
2023-09-03 13:29:00+00:00,353.6746,18.9,12.17,47.84626,-54.09684
2023-09-03 13:39:00+00:00,358.7296,18.9,12.17,47.84626,-54.09684
2023-09-03 13:49:00+00:00,362.548,18.89,12.17,47.84626,-54.09684
2023-09-03 13:59:00+00:00,363.4862,18.9,12.17,47.84626,-54.09684
2023-09-03 14:09:00+00:00,361.6813,18.9,12.17,47.84626,-54.09684
2023-09-03 14:19:00+00:00,362.3528,18.9,12.41,47.84626,-54.09684
2023-09-03 14:29:00+00:00,362.3146,18.9,12.41,47.84626,-54.09684
2023-09-03 14:39:00+00:00,359.0729,18.9,12.41,47.84626,-54.09684
2023-09-03 14:49:00+00:00,356.8445,18.9,12.41,47.84626,-54.09684
2023-09-03 14:59:00+00:00,353.2145,18.9,12.41,47.84626,-54.09684
2023-09-03 15:09:00+00:00,350.0347,18.9,12.41,47.84626,-54.09684
2023-09-03 15:19:00+00:00,349.8746,18.9,12.65,47.84626,-54.09684
2023-09-03 15:29:00+00:00,350.4146,18.91,12.65,47.84626,-54.09684
2023-09-03 15:39:00+00:00,344.9997,18.98,12.65,47.84626,-54.09684
2023-09-03 15:49:00+00:00,340.4064,19.0,12.65,47.84626,-54.09684
2023-09-03 15:59:00+00:00,337.9664,18.99,12.65,47.84626,-54.09684
2023-09-03 16:09:00+00:00,332.5847,18.99,12.65,47.84626,-54.09684
2023-09-03 16:19:00+00:00,322.33799999999997,19.0,12.65,47.84626,-54.09684
2023-09-03 16:29:00+00:00,314.8963,19.0,12.65,47.84626,-54.09684
2023-09-03 16:39:00+00:00,308.493,19.0,12.65,47.84626,-54.09684
2023-09-03 16:49:00+00:00,292.7547,19.0,12.65,47.84626,-54.09684
2023-09-03 16:59:00+00:00,280.4913,19.0,12.65,47.84626,-54.09684
2023-09-03 17:09:00+00:00,279.4948,19.0,12.65,47.84626,-54.09684
2023-09-03 17:19:00+00:00,268.928,19.0,12.57,47.84626,-54.09684
2023-09-03 17:29:00+00:00,251.3499,19.0,12.57,47.84626,-54.09684
2023-09-03 17:39:00+00:00,244.3881,19.06,12.57,47.84626,-54.09684
2023-09-03 17:49:00+00:00,240.2981,19.07,12.57,47.84626,-54.09684
2023-09-03 17:59:00+00:00,225.7114,19.09,12.57,47.84626,-54.09684
2023-09-03 18:09:00+00:00,210.7598,19.1,12.57,47.84626,-54.09684
2023-09-03 18:19:00+00:00,203.1965,19.1,12.41,47.84626,-54.09684
2023-09-03 18:29:00+00:00,192.1715,19.16,12.41,47.84626,-54.09684
2023-09-03 18:39:00+00:00,178.8615,19.19,12.41,47.84626,-54.09684
2023-09-03 18:49:00+00:00,173.1698,19.19,12.41,47.84626,-54.09684
2023-09-03 18:59:00+00:00,170.7465,19.19,12.41,47.84626,-54.09684
2023-09-03 19:09:00+00:00,162.0898,19.2,12.41,47.84626,-54.09684
2023-09-03 19:19:00+00:00,152.2532,19.2,12.41,47.84626,-54.09684
2023-09-03 19:29:00+00:00,152.9582,19.2,12.41,47.84626,-54.09684
2023-09-03 19:39:00+00:00,153.5899,19.24,12.41,47.84626,-54.09684
2023-09-03 19:49:00+00:00,146.9982,19.29,12.41,47.84626,-54.09684
2023-09-03 19:59:00+00:00,146.4282,19.3,12.41,47.84626,-54.09684
2023-09-03 20:09:00+00:00,153.4648,19.3,12.41,47.84626,-54.09684
2023-09-03 20:19:00+00:00,154.3032,19.26,12.33,47.84626,-54.09684
2023-09-03 20:29:00+00:00,156.0631,19.2,12.33,47.84626,-54.09684
2023-09-03 20:39:00+00:00,163.2515,19.2,12.33,47.84626,-54.09684
2023-09-03 20:49:00+00:00,168.8948,19.2,12.33,47.84626,-54.09684
2023-09-03 20:59:00+00:00,173.8048,19.2,12.33,47.84626,-54.09684
2023-09-03 21:09:00+00:00,183.1198,19.2,12.33,47.84626,-54.09684
2023-09-03 21:19:01+00:00,189.6848,19.2,12.33,47.84626,-54.09684
2023-09-03 21:29:01+00:00,192.5798,19.2,12.33,47.84626,-54.09684
2023-09-03 21:39:01+00:00,200.6731,19.2,12.33,47.84626,-54.09684
2023-09-03 21:49:01+00:00,207.0464,19.2,12.33,47.84626,-54.09684
2023-09-03 21:59:01+00:00,207.6248,19.2,12.33,47.84626,-54.09684
2023-09-03 22:09:01+00:00,213.0365,19.15,12.33,47.84626,-54.09684
2023-09-03 22:19:01+00:00,222.9081,19.09,12.25,47.84626,-54.09684
2023-09-03 22:29:01+00:00,227.4531,19.0,12.25,47.84626,-54.09684
2023-09-03 22:39:01+00:00,226.7314,18.95,12.25,47.84626,-54.09684
2023-09-03 22:49:01+00:00,232.0847,18.94,12.25,47.84626,-54.09684
2023-09-03 22:59:01+00:00,241.6814,18.97,12.25,47.84626,-54.09684
2023-09-03 23:09:01+00:00,244.5464,19.0,12.25,47.84626,-54.09684
2023-09-03 23:19:00+00:00,246.6748,19.03,12.25,47.84626,-54.09684
2023-09-03 23:29:00+00:00,251.7731,19.0,12.25,47.84626,-54.09684
2023-09-03 23:39:00+00:00,258.803,19.0,12.25,47.84626,-54.09684
2023-09-03 23:49:00+00:00,262.1797,19.0,12.25,47.84626,-54.09684
2023-09-03 23:59:00+00:00,267.1931,19.0,12.25,47.84626,-54.09684
